[[{"header":{"parameterUnit":"m.s-1","parameterCategory":1,"la1":30.2991,"la2":30.254,"lo1":-89.0895,"lo2":-89.0444,"dy":0.0017,"dx":0.0017,"nx":28,"ny":28,"refTime":"2024-07-12T03:00:00:Z","depth":0,"parameterNumber":2,"parameterNumberName":"U-component_of_WINDS"},"data":[0,0,0,0,0,0,0,0,0,0,0,0,0,0,0,0,0,0,0,0,0,0,0,0,0,0,0,0,0,0,0,0,0,0,0,0,0,0,0,0,0,0,0,0,0,0,0,0,0,0,0,0,0,0,0,0,0,0,3.519,3.5191,0,3.533,3.5331,3.5333,3.5295,3.5293,3.529,3.5287,3.5433,3.5439,3.5445,0,0,0,0,0,0,0,0,0,0,0,0,0,3.4893,3.4898,3.519,3.5191,3.5193,3.5329,3.5331,3.5333,3.5296,3.5293,3.5289,3.5286,3.543,3.5438,3.5446,0,0,0,0,0,0,0,0,0,0,0,0,0,3.5026,3.49,3.5189,3.5191,3.5193,3.5329,3.5331,3.5334,3.5297,3.5292,3.5288,3.5284,3.5428,3.5437,3.5447,3.5591,0,0,3.5477,3.5481,0,0,0,0,0,0,0,0,3.5019,3.5037,3.5189,3.5191,3.5193,3.5291,3.528,3.542,3.5298,3.5257,3.5287,3.5282,3.5389,3.5402,3.5437,3.5598,3.5604,3.5478,3.5483,3.5488,3.549,0,0,0,0,0,0,0,3.5009,3.5031,3.5245,3.5191,3.5194,3.5185,3.52,3.5306,3.5345,3.526,3.5258,3.5275,3.5389,3.5428,3.544,3.5606,3.5477,3.5486,3.5492,3.5496,3.5892,3.5896,0,0,0,0,0,0,3.4998,3.5023,3.5241,3.5249,3.5094,3.5194,3.521,3.5264,3.5344,3.5352,3.5278,3.5273,3.5413,3.5429,3.5445,3.5619,3.5487,3.5497,3.5502,3.5887,3.5893,3.5898,0,0,0,0,0,0,3.4992,3.5018,3.5235,3.5136,3.5163,3.5204,3.5264,3.5269,3.5307,3.5357,3.5364,3.5311,3.5411,3.5432,3.5555,3.5623,3.5501,3.551,3.5882,3.5889,3.5896,3.5967,0,0,0,0,0,0,3.4984,3.5016,3.5071,3.5137,3.5168,3.5342,3.5268,3.5274,3.5324,3.5318,3.5389,3.5397,3.5409,3.5541,3.5565,3.5635,3.5517,3.5876,3.5885,3.5893,3.5959,3.5976,3.599,0,0,0,0,0,3.4973,3.5086,3.5074,3.51,3.5237,3.5346,3.5364,3.5374,3.5329,3.5385,3.5417,3.5395,3.5612,3.5553,3.558,3.5654,3.5872,3.5882,3.5893,3.5952,3.5973,3.599,0,0,0,0,0,0,3.5027,3.5095,3.5082,3.5219,3.5277,3.5339,3.541,3.5396,3.5468,3.5459,3.547,3.5487,3.5613,3.5646,3.5579,3.5798,3.5735,3.5752,3.5771,3.5791,3.5807,3.5796,3.5525,0,0,0,0,0,3.5055,3.5137,3.5191,3.5308,3.5337,3.5369,3.5416,3.5419,3.548,3.5505,3.5546,3.5606,3.5688,3.5742,3.582,3.5964,3.5979,3.6028,3.6044,3.6056,3.607,3.6149,3.6171,3.5933,3.5933,3.5933,0,0,3.5113,3.516,3.5211,3.532,3.5365,3.545,3.5389,3.5482,3.5545,3.5519,3.5637,3.567,3.5738,3.5872,3.5934,3.5904,3.6139,3.607,3.6079,3.6087,3.6162,3.6185,3.6205,3.594,3.5939,3.5938,0,0,3.5263,3.5307,3.5408,3.5454,3.5523,3.5543,3.5568,3.5632,3.5653,3.5772,3.5753,3.5829,3.597,3.6019,3.6063,3.6231,3.6213,3.6257,3.6338,3.6415,3.6434,3.645,3.651,3.6532,3.627,3.6271,3.6271,0,3.5327,3.5453,3.5462,3.5556,3.5604,3.5583,3.5686,3.5731,3.5823,3.5857,3.5822,3.5998,3.6042,3.6187,3.6228,3.6265,3.6293,3.6248,3.643,3.6447,3.6463,3.652,3.6542,3.6275,3.6275,3.6274,3.6274,0,3.5529,3.5617,3.569,3.5778,3.5835,3.5933,3.5957,3.6013,3.6012,3.6036,3.6157,3.621,3.6298,3.6333,3.6333,3.6479,3.6458,3.6427,3.6364,3.649,3.6544,3.6566,3.6282,3.628,3.6279,3.6278,0,0,3.5716,3.5807,3.5833,3.5873,3.5947,3.6016,3.6114,3.6199,3.6247,3.6311,3.6393,3.6513,3.6484,3.6534,3.6539,3.6606,3.6736,3.6567,3.6568,3.6596,3.69,3.6922,3.6947,3.6725,3.6729,3.6732,3.6894,0,3.5872,3.6042,3.6052,3.6207,3.6289,3.627,3.6355,3.6411,3.6436,3.6509,3.6538,3.6622,3.6578,3.6608,3.6673,3.6706,3.6797,3.6695,3.6801,3.6805,3.6784,3.6976,3.7,3.715,3.6915,3.6918,3.6921,0,3.6076,3.6145,3.6308,3.637,3.6405,3.6481,3.656,3.6631,3.6693,3.6707,3.6762,3.6758,3.6858,3.6792,3.6931,3.6861,3.6906,3.6929,3.6935,3.6945,3.687,3.699,3.7198,3.722,3.6954,3.6952,3.6949,0,3.6196,3.633,3.6444,3.6478,3.6554,3.6608,3.6643,3.6701,3.6752,3.6821,3.6854,3.6935,3.6979,3.7042,3.706,3.701,3.7198,3.7134,3.7213,3.7212,3.7253,3.725,3.747,3.7282,3.7282,3.7282,3.7281,0,3.6368,3.6469,3.6499,3.6569,3.6681,3.6692,3.6803,3.6834,3.6886,3.6962,3.6952,3.7024,3.7043,3.712,3.7134,3.7247,3.7267,3.7281,3.7284,3.7282,3.728,3.7311,3.7301,3.7288,3.7286,3.7285,3.7284,0,3.6521,3.6545,3.6668,3.673,3.6748,3.6828,3.6881,3.6949,3.6972,3.7069,3.7093,3.7131,3.7219,3.7243,3.735,3.736,3.7493,3.7486,3.7471,3.7471,3.7548,3.754,3.7795,3.7829,3.762,3.7622,3.7623,0,3.6629,3.6706,3.6775,3.6825,3.6862,3.6943,3.6994,3.7008,3.7063,3.7139,3.7198,3.7286,3.7356,3.7499,3.7537,3.7618,3.7613,3.7697,3.7625,3.7621,3.7614,3.7609,3.7616,3.771,3.7712,3.7714,3.7716,0,3.6819,3.6827,3.6901,3.6979,3.7041,3.7104,3.7164,3.7206,3.7229,3.729,3.738,3.7435,3.7544,3.7631,3.7713,3.7749,3.7737,3.7738,3.776,3.7759,3.7747,3.7754,3.7508,3.7732,3.773,3.7729,3.7728,3.7728,3.6952,3.7019,3.7078,3.7161,3.7208,3.7264,3.7331,3.7363,3.7438,3.7527,3.7531,3.7629,3.769,3.7799,3.784,3.7917,3.7892,3.7925,3.7933,3.7941,3.7947,3.7735,3.7932,3.7932,3.7931,3.7931,3.7931,0,3.7141,3.7178,3.7254,3.7338,3.7403,3.7385,3.7451,3.7507,3.7593,3.765,3.7719,3.7823,3.7908,3.7951,3.8035,3.8089,3.8085,3.811,3.8106,3.8115,3.7965,3.7936,3.8112,3.8112,3.8112,3.8112,3.8112,3.8112,3.7247,3.7359,3.7374,3.7509,3.7546,3.7641,3.768,3.7732,3.7777,3.7893,3.7963,3.7991,3.8043,3.813,3.8207,3.8218,3.8249,3.8277,3.8285,3.8144,3.8125,3.8108,3.8081,3.8284,3.8284,3.8429,3.843,3.8431]},{"header":{"parameterUnit":"m.s-1","parameterCategory":1,"la1":30.2991,"la2":30.254,"lo1":-89.0895,"lo2":-89.0444,"dy":0.0017,"dx":0.0017,"nx":28,"ny":28,"refTime":"2024-07-12T03:00:00:Z","depth":0,"parameterNumber":3,"parameterNumberName":"V-component_of_WINDS"},"data":[0,0,0,0,0,0,0,0,0,0,0,0,0,0,0,0,0,0,0,0,0,0,0,0,0,0,0,0,0,0,0,0,0,0,0,0,0,0,0,0,0,0,0,0,0,0,0,0,0,0,0,0,0,0,0,0,0,0,-1.0021,-1.0021,0,-1.0051,-1.0051,-1.0052,-1.0058,-1.0057,-1.0057,-1.0057,-1.0088,-1.0089,-1.009,0,0,0,0,0,0,0,0,0,0,0,0,0,-0.9968,-0.9969,-1.0021,-1.0021,-1.0021,-1.0051,-1.0051,-1.0052,-1.0058,-1.0057,-1.0057,-1.0057,-1.0088,-1.0089,-1.009,0,0,0,0,0,0,0,0,0,0,0,0,0,-0.9994,-0.9969,-1.0021,-1.0028,-1.0029,-1.0051,-1.0052,-1.0052,-1.0058,-1.0057,-1.0057,-1.0057,-1.0087,-1.0089,-1.0091,-1.0108,0,0,-1.0095,-1.0096,0,0,0,0,0,0,0,0,-0.9992,-0.9996,-1.0026,-1.0027,-1.0028,-1.005,-1.0044,-1.0071,-1.0058,-1.0047,-1.0057,-1.0056,-1.0076,-1.0078,-1.0085,-1.0109,-1.0111,-1.0096,-1.0097,-1.0097,-1.0098,0,0,0,0,0,0,0,-0.999,-0.9994,-1.0033,-1.0027,-1.0028,-1.003,-1.0033,-1.0049,-1.0063,-1.0048,-1.0048,-1.0052,-1.0076,-1.0083,-1.0086,-1.0111,-1.0096,-1.0097,-1.0098,-1.0099,-1.0151,-1.0151,0,0,0,0,0,0,-0.9987,-0.9993,-1.0032,-1.0034,-1.0009,-1.0031,-1.0035,-1.0044,-1.0063,-1.0065,-1.0052,-1.0052,-1.0081,-1.0084,-1.0087,-1.0108,-1.0097,-1.0099,-1.01,-1.0151,-1.0151,-1.0152,0,0,0,0,0,0,-0.9986,-0.9991,-1.0031,-1.0013,-1.0019,-1.0032,-1.0042,-1.0044,-1.0051,-1.0066,-1.0069,-1.0057,-1.0081,-1.0085,-1.0103,-1.0109,-1.0099,-1.0101,-1.015,-1.0151,-1.0151,-1.0151,0,0,0,0,0,0,-0.9985,-0.999,-0.9997,-1.0013,-1.0019,-1.0045,-1.0043,-1.0045,-1.0054,-1.0054,-1.0071,-1.0073,-1.0081,-1.01,-1.0104,-1.0111,-1.0102,-1.015,-1.015,-1.0151,-1.015,-1.0151,-1.0152,0,0,0,0,0,-0.9983,-0.9995,-0.9997,-1.0002,-1.0028,-1.0046,-1.0049,-1.0057,-1.0055,-1.0061,-1.0071,-1.0073,-1.0108,-1.0102,-1.0106,-1.0114,-1.0149,-1.015,-1.0151,-1.015,-1.0151,-1.0152,0,0,0,0,0,0,-0.9979,-0.9998,-1.0,-1.0018,-1.003,-1.0047,-1.0055,-1.0058,-1.0072,-1.0071,-1.0081,-1.0084,-1.0102,-1.011,-1.0103,-1.0132,-1.0128,-1.013,-1.0126,-1.0127,-1.0128,-1.0125,-1.0103,0,0,0,0,0,-0.998,-0.9993,-1.0009,-1.0024,-1.003,-1.0042,-1.005,-1.0055,-1.0068,-1.0073,-1.0084,-1.0097,-1.011,-1.0119,-1.0133,-1.0152,-1.0155,-1.0159,-1.016,-1.0161,-1.0162,-1.0173,-1.0175,-1.0155,-1.0155,-1.0155,0,0,-0.9983,-0.9995,-1.0003,-1.0023,-1.0033,-1.0047,-1.0046,-1.006,-1.007,-1.0075,-1.0093,-1.0101,-1.0116,-1.0134,-1.0143,-1.0142,-1.0169,-1.0162,-1.0163,-1.0164,-1.0174,-1.0176,-1.0177,-1.0156,-1.0155,-1.0155,0,0,-0.9995,-1.0005,-1.0019,-1.0029,-1.0044,-1.0052,-1.0055,-1.0071,-1.0077,-1.0095,-1.0099,-1.0112,-1.0135,-1.0146,-1.0154,-1.017,-1.0173,-1.0175,-1.0179,-1.019,-1.0191,-1.0193,-1.0198,-1.02,-1.0176,-1.0176,-1.0176,0,-0.9996,-1.0016,-1.0025,-1.0039,-1.0048,-1.0054,-1.0067,-1.0077,-1.0096,-1.0102,-1.01,-1.013,-1.0141,-1.0162,-1.0166,-1.0172,-1.0176,-1.0172,-1.019,-1.0192,-1.0193,-1.0199,-1.0201,-1.0176,-1.0176,-1.0176,-1.0176,0,-1.0017,-1.0031,-1.004,-1.0058,-1.0069,-1.0082,-1.0093,-1.0102,-1.0107,-1.0115,-1.0133,-1.0146,-1.0162,-1.0168,-1.0172,-1.0189,-1.0188,-1.0188,-1.0185,-1.0195,-1.02,-1.0202,-1.0176,-1.0176,-1.0176,-1.0176,0,0,-1.0027,-1.005,-1.0053,-1.0062,-1.0079,-1.009,-1.0104,-1.012,-1.0128,-1.0141,-1.0153,-1.0173,-1.0174,-1.0183,-1.0189,-1.0198,-1.021,-1.0197,-1.0198,-1.0199,-1.0229,-1.0229,-1.0231,-1.0212,-1.0213,-1.0213,-1.0228,0,-1.0041,-1.0066,-1.0074,-1.0095,-1.0108,-1.0114,-1.0126,-1.0138,-1.0147,-1.0159,-1.0168,-1.0182,-1.0182,-1.0187,-1.0197,-1.0207,-1.0216,-1.0206,-1.0223,-1.0224,-1.0219,-1.0234,-1.0233,-1.0247,-1.023,-1.0231,-1.0231,0,-1.006,-1.0073,-1.0095,-1.0111,-1.0117,-1.0128,-1.0143,-1.0155,-1.0169,-1.0174,-1.0185,-1.0191,-1.0206,-1.0202,-1.0223,-1.0216,-1.0224,-1.023,-1.0231,-1.0232,-1.0227,-1.0235,-1.0251,-1.0253,-1.0234,-1.0234,-1.0234,0,-1.0064,-1.0087,-1.0104,-1.0111,-1.013,-1.0137,-1.0146,-1.016,-1.0169,-1.0182,-1.0188,-1.0204,-1.0212,-1.0224,-1.0233,-1.023,-1.0254,-1.0251,-1.0258,-1.0258,-1.0263,-1.0262,-1.028,-1.0269,-1.0268,-1.0268,-1.0268,0,-1.0078,-1.0091,-1.0106,-1.0116,-1.0131,-1.0141,-1.0155,-1.0164,-1.0176,-1.0188,-1.0195,-1.0206,-1.0218,-1.0231,-1.0238,-1.0255,-1.0258,-1.0263,-1.0265,-1.0262,-1.0262,-1.0267,-1.0266,-1.0269,-1.0269,-1.0269,-1.0269,0,-1.0085,-1.0095,-1.0113,-1.013,-1.0135,-1.0145,-1.016,-1.017,-1.0178,-1.0193,-1.0197,-1.0211,-1.0226,-1.0237,-1.0257,-1.0262,-1.028,-1.0282,-1.0275,-1.0275,-1.0282,-1.0281,-1.0304,-1.0307,-1.0294,-1.0294,-1.0294,0,-1.0093,-1.0103,-1.0121,-1.0129,-1.0138,-1.0151,-1.016,-1.0171,-1.018,-1.0197,-1.0205,-1.0221,-1.0234,-1.0259,-1.027,-1.0286,-1.0288,-1.0295,-1.029,-1.0287,-1.0287,-1.0286,-1.0288,-1.0295,-1.0295,-1.0295,-1.0295,0,-1.0106,-1.011,-1.0123,-1.0138,-1.0149,-1.0162,-1.0174,-1.0181,-1.0193,-1.0204,-1.022,-1.023,-1.025,-1.0266,-1.0282,-1.0291,-1.0295,-1.0297,-1.0299,-1.0296,-1.0292,-1.0294,-1.0276,-1.0296,-1.0296,-1.0296,-1.0296,-1.0296,-1.0113,-1.0122,-1.0136,-1.0151,-1.0161,-1.0173,-1.0183,-1.0193,-1.0206,-1.0223,-1.0229,-1.0245,-1.026,-1.0282,-1.0291,-1.0305,-1.0304,-1.0308,-1.0309,-1.0309,-1.0309,-1.029,-1.0308,-1.0308,-1.0308,-1.0308,-1.0308,0,-1.0126,-1.0135,-1.0148,-1.0166,-1.0177,-1.018,-1.0194,-1.0204,-1.0218,-1.0231,-1.0244,-1.0262,-1.0277,-1.029,-1.0306,-1.0314,-1.0316,-1.0318,-1.0317,-1.0319,-1.0309,-1.0305,-1.0316,-1.0316,-1.0316,-1.0316,-1.0316,-1.0316,-1.0134,-1.015,-1.0156,-1.0178,-1.0187,-1.0203,-1.0211,-1.0221,-1.0232,-1.0252,-1.0264,-1.0273,-1.0286,-1.0303,-1.0317,-1.0321,-1.0326,-1.0327,-1.0331,-1.0321,-1.032,-1.0319,-1.0315,-1.0328,-1.0328,-1.0341,-1.0341,-1.0341]}]]